Location: Peebles
(55.6412°N, 3.1714°W)
Time: 11:47:04
(UTC+01:00)

RS-15 - Pass Details

Date: 05 December 2023
Orbit: 1898 x 2146 km, 64.8° (Epoch: 02 October)

Event Time Altitude Azimuth Distance (km) Brightness Sun altitude
Exits shadow 04:49:20 37° 307° (NW) 2,831 8.4 -28.6°
Maximum altitude 04:54:55 76° 230° (SW) 2,015 7.8 -27.8°
Drops below altitude 10° 05:05:53 10° 148° (SSE) 4,303 10.2 -26.3°
Sets 05:09:05 0° 147° (SSE) 5,285 10.8 -25.8°
